TimeEST,TemperatureF,Dew PointF,Humidity,Sea Level PressureIn,VisibilityMPH,Wind Direction,Wind SpeedMPH,Gust SpeedMPH,PrecipitationIn,Events,Conditions,WindDirDegrees,DateUTC
12:53 AM,34.0,19.9,56,30.30,10.0,WNW,9.2,17.3,N/A,,Overcast,290,2012-11-13 05:53:00
1:53 AM,34.0,19.0,54,30.32,10.0,West,10.4,18.4,0.00,,Unknown,270,2012-11-13 06:53:00
2:53 AM,33.1,18.0,54,30.34,10.0,WNW,10.4,-,N/A,,Overcast,300,2012-11-13 07:53:00
3:53 AM,33.1,19.0,56,30.35,10.0,WNW,6.9,-,N/A,,Overcast,290,2012-11-13 08:53:00
4:53 AM,33.1,17.1,52,30.36,10.0,West,9.2,-,N/A,,Overcast,270,2012-11-13 09:53:00
5:53 AM,33.1,18.0,54,30.38,10.0,West,5.8,-,N/A,,Overcast,270,2012-11-13 10:53:00
6:53 AM,33.1,18.0,54,30.41,10.0,Variable,5.8,-,N/A,,Overcast,0,2012-11-13 11:53:00
7:53 AM,33.1,18.0,54,30.43,10.0,NW,4.6,-,N/A,,Overcast,320,2012-11-13 12:53:00
8:53 AM,34.0,19.0,54,30.45,10.0,Calm,Calm,-,N/A,,Overcast,0,2012-11-13 13:53:00
9:53 AM,35.1,19.9,54,30.48,10.0,WNW,5.8,-,N/A,,Overcast,290,2012-11-13 14:53:00
10:53 AM,37.9,21.9,53,30.49,10.0,WNW,8.1,-,N/A,,Overcast,290,2012-11-13 15:53:00
11:53 AM,37.9,21.9,53,30.49,10.0,WSW,10.4,-,N/A,,Overcast,250,2012-11-13 16:53:00
12:53 PM,37.9,21.0,51,30.49,10.0,West,6.9,-,N/A,,Mostly Cloudy,270,2012-11-13 17:53:00
1:53 PM,36.0,21.0,55,30.49,10.0,West,5.8,-,N/A,,Partly Cloudy,280,2012-11-13 18:53:00
2:53 PM,37.9,21.0,51,30.48,10.0,West,6.9,-,N/A,,Scattered Clouds,280,2012-11-13 19:53:00
3:53 PM,37.0,21.0,52,30.48,10.0,Variable,3.5,-,N/A,,Clear,0,2012-11-13 20:53:00
4:53 PM,37.0,21.0,52,30.49,10.0,Calm,Calm,-,N/A,,Clear,0,2012-11-13 21:53:00
5:53 PM,32.0,23.0,69,30.50,10.0,WSW,3.5,-,N/A,,Clear,240,2012-11-13 22:53:00
6:53 PM,30.9,23.0,72,30.51,10.0,Calm,Calm,-,N/A,,Clear,0,2012-11-13 23:53:00
7:53 PM,28.0,21.9,78,30.53,10.0,SSE,3.5,-,N/A,,Clear,150,2012-11-14 00:53:00
8:53 PM,28.9,21.9,75,30.53,10.0,ESE,3.5,-,N/A,,Clear,120,2012-11-14 01:53:00
9:53 PM,28.9,21.9,75,30.53,10.0,Calm,Calm,-,N/A,,Clear,0,2012-11-14 02:53:00
10:53 PM,27.0,21.0,78,30.53,10.0,SE,4.6,-,N/A,,Clear,140,2012-11-14 03:53:00
11:53 PM,28.0,21.9,78,30.54,10.0,SSE,4.6,-,N/A,,Clear,150,2012-11-14 04:53:00